{"data":{"norad_id":52135,"intl_designator":"2022-029AZ","name":"STARLINK-3729","alt_names":[],"object_type":"PAYLOAD","status":"ACTIVE","operator":null,"country":"US","launch_date":"2022-03-19","launch_site_code":"AFETR","launch_vehicle":null,"mission":null,"orbit_class":"UNKNOWN","rcs_meters":null,"size_class":null,"mass_kg":null,"dimensions":null,"purposes":["comms"],"wikipedia_slug":null,"has_3d_model":false,"image_url":null,"decayed_at":null,"tle_current":{"epoch":"2026-05-25T01:23:45.790368Z","epoch_age_seconds":66054,"freshness":"FRESH","line1":"1 52135U 22029AZ  26145.05816887  .01381596  00000+0  47592-2 0  9993","line2":"2 52135  53.2182  73.8506 0000948 162.1318 197.9742 15.86599539232647","mean_motion":15.86599539,"eccentricity":9.48e-5,"inclination_deg":53.2182,"raan_deg":73.8506,"arg_perigee_deg":162.1318,"mean_anomaly_deg":197.9742,"bstar":0.0047592,"rev_number":23264,"period_min":90.760142342383,"perigee_km":311.19039983698,"apogee_km":312.45881655789,"semimajor_km":6689.9616081974,"source":"CELESTRAK","updated_at":"2026-05-25T13:38:17.078294Z"}}}